Location: Newark
(7.0858°N, 171.3717°E)
Time: 20:27:42
(UTC+00:00)

Tiros 1 - Pass Details

Date: 30 November 2020
Orbit: 630 x 663 km, 48.4° (Epoch: 18 January)

Event Time Altitude Azimuth Distance (km) Brightness Sun altitude
Rises 00:39:20 0° 217° (SW) 2,967 10.9 61.0°
Reaches altitude 10° 00:41:40 10° 216° (SW) 2,060 10.3 60.9°
Maximum altitude 00:46:25 80° 130° (SE) 670 8.7 60.7°
Drops below altitude 10° 00:51:12 10° 42° (NE) 2,068 9.6 60.4°
Sets 00:53:33 0° 41° (NE) 2,980 10.3 60.3°
